Location: Apollinopolis Magna
(24.9792°N, 32.8772°E)
Time: 04:30:55
(UTC+00:00)

FUSE - Pass Details

Date: 02 March 2021
Orbit: 742 x 756 km, 25.0° (Epoch: 12 April)

Event Time Altitude Azimuth Distance (km) Brightness Sun altitude
Rises 17:41:44 0° 272° (W) 3,193 8.6 -25.8°
Reaches altitude 10° 17:44:12 10° 272° (W) 2,268 7.5 -26.4°
Enters shadow 17:49:18 81° 273° (W) 763 3.9 -27.5°
